Theta_e
307 308 311 309 307 308 307 309 311 309 308 311 310 309 305 301 301 300 298 297 296 295 293 293 294 296 298 303 305 307 310 310 313 314 313 310 306 306 307 306 307 308 309 310
307 308 308 306 306 308 307 309 309 308 308 308 309 309 303 302 301 300 298 296 295 294 293 291 292 293 295 297 300 304 305 307 308 310 306 304 301 298 298 298 300 301 301 301
309 311 306 307 306 307 307 308 308 311 309 306 306 308 305 301 300 299 297 296 295 294 293 291 290 290 292 293 295 298 301 303 303 303 302 301 299 296 295 293 293 293 294 295
308 308 310 308 309 308 310 307 308 310 312 315 306 313 308 303 301 299 298 296 295 293 291 290 289 289 290 290 293 294 296 298 299 299 299 297 291 287 286 287 287 288 288 288
315 310 310 311 311 309 312 308 309 308 308 309 309 311 308 302 303 301 298 296 294 293 291 289 288 288 288 289 290 291 292 293 294 295 295 293 288 286 286 286 286 286 286 286
312 307 308 310 308 309 304 307 305 303 306 312 310 310 310 306 305 302 298 296 295 293 291 289 288 288 287 287 288 288 289 289 289 289 288 288 286 286 286 286 286 286 286 285
310 309 307 306 307 306 308 311 315 313 312 316 306 308 309 305 303 302 300 297 295 293 290 289 287 287 287 287 287 287 287 286 286 286 286 287 286 286 286 286 286 286 285 285
315 317 308 306 308 309 308 311 316 316 312 311 308 313 312 304 300 299 299 297 294 292 290 289 287 287 287 287 286 286 286 285 286 286 286 286 286 286 286 286 285 285 284 283
313 315 306 306 306 308 309 311 309 309 301 311 310 308 306 302 300 298 297 296 295 293 291 290 288 287 286 286 286 286 286 285 285 286 286 286 286 286 286 285 285 284 283 283
312 314 309 306 307 308 308 307 313 309 312 311 308 308 309 306 303 298 297 297 295 293 291 290 289 287 286 286 286 286 286 286 286 286 287 286 286 286 285 285 285 284 283 282
310 312 312 307 309 311 311 312 309 309 307 308 306 306 302 305 302 300 299 298 296 294 292 290 289 289 287 286 286 286 286 286 286 286 286 286 286 286 286 286 285 284 282 281
309 310 310 310 307 305 309 310 309 312 310 305 307 309 302 302 301 300 299 298 296 294 293 291 289 289 288 286 286 286 285 286 286 286 286 286 286 286 286 286 285 284 282 281
310 311 309 309 309 306 309 308 308 306 305 306 309 307 302 301 300 299 298 297 295 294 292 291 289 288 287 287 286 286 286 286 286 286 286 286 286 286 286 286 285 284 282 280
311 310 314 320 313 309 310 308 307 310 306 308 310 307 305 304 302 299 298 297 294 293 292 291 289 287 288 287 287 286 286 286 286 286 286 286 286 286 285 284 284 283 281 280
311 317 307 304 304 305 305 309 307 310 311 312 310 309 305 305 304 301 298 295 294 293 291 289 290 288 288 287 287 286 286 286 286 286 286 286 286 285 284 284 283 282 280 279
305 312 307 305 301 301 305 304 307 307 307 308 305 307 303 302 297 297 297 295 295 293 292 290 288 289 288 288 287 287 286 286 286 286 286 285 285 284 284 283 281 280 279 278
310 305 311 313 298 301 310 304 304 304 302 306 307 307 296 297 297 297 296 293 292 291 291 290 288 288 289 289 290 288 288 287 286 286 286 285 284 284 282 280 278 277 277 276
305 308 309 298 298 310 300 291 298 304 303 298 293 290 295 295 293 292 291 291 290 290 290 290 290 289 289 289 290 289 288 287 287 286 285 284 283 281 279 277 276 276 275 274
296 303 299 304 303 302 296 290 293 299 298 296 298 296 291 289 288 290 288 287 289 288 289 290 291 291 290 289 288 288 287 287 286 285 284 282 281 279 277 276 275 275 275 275
297 298 306 296 306 308 296 289 288 291 294 288 295 292 289 287 289 289 286 286 286 288 288 289 289 289 288 288 288 287 287 285 285 284 282 280 278 277 276 275 274 274 274 273
299 299 306 301 304 301 292 288 289 295 296 285 288 288 287 288 290 287 285 285 287 287 287 288 288 288 289 289 288 287 286 285 285 282 280 278 277 276 274 274 274 274 273 272
298 302 302 299 301 304 289 288 294 293 288 288 287 288 288 288 287 286 286 286 286 286 287 287 287 288 289 288 287 286 284 285 282 280 278 276 275 274 273 274 273 272 271 270
297 299 300 300 301 290 289 291 290 290 289 287 287 287 287 287 286 285 286 285 285 286 287 287 287 287 287 287 286 285 284 281 279 277 276 275 274 273 273 272 271 271 270 269
288 287 291 292 290 289 289 289 289 289 289 288 287 286 285 286 285 286 283 284 284 286 286 286 285 286 286 286 284 283 281 279 277 276 274 273 272 272 272 270 270 269 269 268
291 289 289 289 288 289 289 288 289 288 288 287 287 286 285 284 284 284 284 283 284 286 287 286 286 286 286 284 282 280 278 277 275 274 272 272 271 271 270 269 269 268 268 267
287 288 289 290 289 290 290 290 288 288 287 286 286 285 284 284 285 284 283 285 285 285 285 284 285 284 283 281 279 277 276 275 274 272 271 272 271 270 268 267 267 268 266 267
Wind_Speed
1 4 9 12 9 3 5 4 5 2 3 0 5 7 3 3 5 4 4 6 7 7 6 14 17 18 23 26 28 27 24 24 25 26 28 28 30 29 28 26 24 23 21 19
4 7 8 5 5 4 4 4 5 4 2 5 1 7 2 3 2 2 4 5 6 4 8 13 19 22 25 27 28 28 28 27 26 27 27 27 29 30 28 26 25 23 22 21
8 4 7 8 4 6 5 6 5 6 0 0 2 5 4 2 4 5 5 4 4 4 5 8 16 21 23 26 27 27 26 24 24 26 27 29 28 27 28 29 29 28 26 26
6 3 6 4 6 8 6 8 6 5 4 4 1 4 4 4 4 5 6 6 7 6 4 4 10 16 20 21 23 26 27 28 27 24 25 28 31 29 28 29 28 28 28 28
6 7 5 4 6 7 6 6 7 3 4 1 2 1 6 4 7 7 7 6 5 5 5 5 7 12 15 18 22 25 27 28 27 26 27 31 34 30 27 26 27 27 26 26
4 1 6 7 3 4 10 7 6 4 3 2 6 6 4 6 6 8 9 9 9 7 6 7 8 11 15 17 20 22 27 27 26 26 27 29 29 28 26 24 25 24 24 24
1 4 4 5 6 3 2 6 1 1 1 5 1 3 6 4 3 9 17 13 10 8 7 7 9 11 13 16 19 21 21 24 24 24 25 25 25 25 25 22 21 21 21 21
8 5 11 6 7 8 7 7 5 7 4 2 1 6 5 2 1 3 7 11 9 9 7 7 12 13 13 14 16 18 20 21 21 22 23 22 21 22 22 20 19 18 17 16
7 6 1 3 4 4 6 5 3 7 2 2 4 4 3 2 1 2 9 12 12 10 9 9 15 15 15 16 16 17 19 19 19 20 20 19 19 19 18 17 16 15 14 14
7 2 1 3 3 4 4 7 3 2 3 5 3 3 5 5 7 6 10 15 12 10 9 9 16 18 16 17 17 16 16 18 18 17 16 16 16 15 14 12 13 12 12 12
6 4 1 4 6 10 3 4 2 4 3 5 1 5 5 6 9 14 14 14 14 13 12 11 17 20 19 18 19 18 17 17 17 15 14 13 12 11 9 9 10 11 11 13
9 5 4 7 2 2 1 7 7 5 5 3 2 5 2 3 8 11 14 14 11 10 12 14 20 23 22 23 20 20 19 18 16 14 13 11 9 6 5 6 8 10 11 14
11 5 3 4 3 2 6 5 4 5 3 8 5 4 0 0 6 8 9 9 10 10 8 10 16 21 25 24 22 22 21 20 18 15 12 9 7 3 0 3 5 9 12 14
12 5 10 13 5 7 7 7 6 6 4 6 9 6 6 6 8 8 9 9 10 10 11 9 9 19 24 24 24 25 24 21 19 17 14 11 8 5 4 4 7 10 13 16
8 11 4 2 2 3 4 9 12 13 12 9 7 12 10 12 12 11 9 7 9 9 8 8 10 16 22 25 26 26 25 23 21 19 17 15 12 8 7 6 8 11 14 16
1 5 4 4 2 3 3 7 8 9 4 7 3 9 7 7 7 7 9 9 8 7 7 9 10 14 21 28 30 28 27 25 23 22 20 17 15 12 11 10 11 12 14 16
8 6 4 5 3 4 6 11 12 6 5 10 11 9 6 5 8 8 8 9 8 7 8 8 10 18 22 28 30 28 26 24 23 22 20 18 17 15 13 11 11 12 14 16
6 7 2 4 3 6 2 2 3 10 6 4 2 4 6 5 4 5 5 7 8 7 6 7 13 16 18 20 23 23 22 22 23 22 20 20 18 15 13 11 11 12 13 15
3 5 3 5 5 4 4 5 8 9 10 10 9 6 6 5 4 2 5 5 6 7 12 15 15 15 15 19 20 20 21 22 22 22 22 21 18 15 13 12 12 12 14 17
1 3 3 3 5 10 2 2 5 5 6 9 14 7 9 7 3 5 7 6 9 13 11 13 12 13 15 18 17 19 21 21 22 23 22 19 17 14 12 12 12 13 16 18
4 0 8 5 4 5 6 6 5 6 6 3 6 6 8 5 5 6 7 5 10 13 15 15 16 20 21 19 19 22 22 25 25 20 19 18 16 13 12 12 13 16 16 18
7 8 4 3 1 7 7 3 9 4 3 5 5 7 9 7 8 6 7 5 7 11 13 17 21 23 22 20 20 23 25 25 20 19 18 16 14 13 13 14 15 15 16 18
4 5 5 7 5 1 15 2 4 5 7 5 6 7 8 8 7 7 6 7 11 15 20 22 27 25 21 19 20 23 26 21 20 18 17 15 14 13 13 13 15 15 15 17
4 3 3 4 5 4 11 2 3 5 6 6 6 6 7 7 7 7 4 6 9 18 21 20 21 21 24 23 21 22 19 19 18 17 16 14 13 12 13 14 14 15 16 16
3 8 5 1 1 3 4 9 6 6 4 4 4 7 9 8 5 7 5 6 13 18 18 19 20 24 25 20 19 19 19 18 17 16 14 13 13 13 14 14 14 15 15 15
5 6 5 4 9 5 6 12 9 8 8 8 8 5 5 8 9 7 7 16 16 17 16 17 20 20 18 16 18 20 18 17 16 15 14 13 13 14 14 14 17 14 14 14
Wind_Direction
41 127 210 194 197 121 136 170 209 212 243 305 252 256 46 81 77 90 80 75 66 53 29 64 70 75 79 81 81 82 91 94 99 100 96 89 85 80 75 70 67 63 63 65
71 225 217 133 155 149 149 161 237 283 207 175 338 263 94 67 81 111 114 84 65 49 27 34 58 67 71 76 84 88 87 92 96 98 98 96 92 83 79 72 68 65 61 59
173 202 146 140 145 169 204 188 194 213 248 79 344 281 198 100 128 127 119 126 102 81 54 27 46 57 65 70 77 82 90 95 99 100 101 100 96 88 81 72 70 65 64 60
227 222 155 163 192 161 205 200 172 158 127 230 100 270 264 182 173 182 169 162 155 137 116 83 74 67 69 73 83 87 91 93 96 102 103 100 94 86 82 80 76 71 66 64
227 167 169 179 207 166 223 129 149 133 131 88 242 154 257 138 217 201 203 192 189 168 154 133 105 97 91 90 88 90 90 91 92 94 97 99 98 98 94 87 80 72 68 63
230 159 166 193 117 163 147 84 55 56 83 270 215 182 248 194 198 179 183 189 186 173 158 139 115 103 95 94 92 93 97 95 97 99 101 101 102 98 91 83 78 70 65 61
185 213 182 141 97 73 189 118 137 349 238 230 75 163 257 220 191 186 183 186 186 174 162 163 145 129 120 113 111 109 105 104 105 105 103 100 99 95 88 82 76 69 61 55
174 250 170 190 180 176 188 172 166 199 199 222 7 223 246 138 336 269 167 171 175 177 172 172 167 156 148 136 129 125 120 118 116 111 104 102 99 94 89 83 76 71 64 57
177 247 71 69 133 148 183 190 147 105 59 81 210 274 252 150 127 102 153 166 189 185 180 182 177 173 161 154 150 145 137 129 124 118 115 107 97 91 86 79 69 62 53 45
208 127 279 171 112 48 164 151 90 4 189 244 260 266 235 212 193 163 179 188 191 188 184 186 187 183 176 169 163 163 153 144 137 131 120 110 102 92 86 77 64 52 43 29
153 132 203 128 210 171 149 167 78 127 154 177 235 249 216 212 176 187 194 193 190 190 189 193 192 191 186 181 179 173 166 158 152 145 134 124 115 102 85 64 50 35 22 11
187 133 163 207 285 327 197 182 167 163 213 241 163 253 154 230 192 183 194 196 193 190 194 190 191 191 193 192 186 183 178 175 169 160 153 142 132 120 84 48 29 15 4 357
179 196 93 357 335 322 214 194 146 102 79 185 155 248 227 187 157 191 185 188 191 191 190 192 193 197 200 198 194 193 191 189 184 179 179 177 173 162 78 3 355 350 349 348
158 157 202 218 192 145 187 186 178 169 162 173 224 185 214 196 192 188 205 192 182 188 197 195 192 205 208 207 204 203 201 198 196 198 203 207 217 231 256 307 331 335 338 339
146 210 130 63 57 102 187 175 181 200 211 198 204 226 191 198 200 199 198 176 175 192 184 193 206 206 208 211 211 211 208 205 207 213 218 224 230 236 253 277 303 318 326 331
117 166 134 160 28 58 263 229 198 206 215 248 165 245 191 202 110 157 185 164 181 185 198 210 209 202 207 212 213 213 213 213 216 222 227 228 232 239 253 273 295 311 320 326
154 139 140 190 125 124 274 208 190 179 181 182 209 226 156 179 185 189 187 181 196 205 209 203 205 209 213 214 215 215 217 219 223 230 233 233 236 241 251 271 291 308 317 323
146 140 132 132 150 215 228 35 201 201 196 192 86 181 181 183 160 182 180 180 195 206 212 222 229 230 228 221 217 221 225 227 231 233 232 231 232 237 251 268 286 301 312 319
331 136 138 165 206 343 159 202 156 164 237 198 203 170 172 118 78 299 191 191 193 200 225 234 237 232 219 210 213 220 227 231 231 228 226 226 228 234 250 268 285 298 309 315
322 338 179 155 186 207 279 148 141 113 279 208 200 165 146 137 140 234 180 188 214 222 228 227 214 203 204 208 207 214 222 222 225 227 225 225 230 241 258 276 290 302 311 314
128 138 210 181 218 281 202 178 162 132 237 150 159 141 148 180 196 166 157 189 215 220 220 218 215 207 209 209 216 222 224 227 233 223 222 225 235 250 267 281 296 303 309 309
160 160 187 127 174 256 148 73 171 175 53 145 163 170 184 205 166 163 168 192 203 218 218 217 208 215 219 224 224 228 228 234 223 217 219 226 239 254 269 286 296 301 304 305
201 179 172 184 209 345 185 117 202 154 143 182 168 193 193 186 197 172 188 215 226 229 228 222 216 225 232 238 237 234 238 224 212 212 219 230 242 255 272 285 289 294 298 303
250 146 165 130 192 209 206 177 182 194 158 166 189 165 164 197 194 196 190 234 234 241 235 230 220 229 242 244 244 240 230 214 211 215 221 232 246 259 271 277 284 289 293 297
174 137 140 346 1 114 241 238 212 215 167 165 170 179 197 194 200 198 218 230 240 246 238 228 227 236 245 248 235 226 215 210 212 218 225 238 252 261 267 274 281 284 289 293
189 158 167 199 191 165 206 214 199 197 205 203 201 211 208 186 210 197 230 239 244 247 236 228 235 236 238 230 217 210 209 213 217 222 233 246 255 261 270 281 286 279 281 284